Tracking 27112 objects as of 27-Mar-2023
HD Live streaming from Space Station
objects crossing your sky now

STARLINK-1782

Track STARLINK-1782 now!
10-day predictions
STARLINK-1782 is classified as:


NORAD ID: 47548
Int'l Code: 2021-009A
Perigee: 553.6 km
Apogee: 555.1 km
Inclination: 53.1 °
Period: 95.6 minutes
Semi major axis: 6925 km
RCS: Unknown
Launch date: February 4, 2021
Source: United States (US)
Launch site: AIR FORCE EASTERN TEST RANGE (AFETR)
Your satellite tracking list
Your tracking list is empty




NASA's NSSDC Master Catalog

Two Line Element Set (TLE):
1 47548U 21009A   23086.54516468  .00000821  00000-0  73988-4 0  9998
2 47548  53.0536 171.5992 0001025  99.3387 260.7718 15.06399389119031
Source of the keplerian elements: AFSPC